Home   Weather   Toronto   Past weeks

Flag for Canada Past Weather in Toronto, Ontario, Canada — Yesterday and Last 2 Weeks

41 °F

Light rain. Overcast.

Feels Like: 35 °F
Forecast: 37 / 46 °F
Wind: 10 mph from East

Location: Toronto Pearson International Airport

Current Time: Oct 27, 2016 at 1:01:47 AM

Latest Report: Oct 27, 2016 at 12:00 AM

Visibility: 15 mi

Pressure: 30.36 "Hg

Humidity: 61%

Dew Point: 28 °F

Location of TorontoLocation

Past Weather in Toronto — Graph


Toronto Temperature Yesterday

Maximum temperature yesterday: 41 °F (at 2:00 PM)
Minimum temperature yesterday: 32 °F (at 6:00 AM)
Average temperature yesterday: 38 °F

High & Low Weather Summary for the Past Weeks

High77 °F (Oct 18, 12:00 PM)100% (Oct 17, 10:00 AM)30.53 "Hg (Oct 17, 10:00 AM)
Low32 °F (Oct 26, 6:00 AM)40% (Oct 19, 3:00 PM)29.55 "Hg (Oct 18, 2:00 PM)
Average54 °F71%30.04 "Hg
* Reported Oct 11 11:00 PM — Oct 26 11:53 PM, Toronto, Weather by CustomWeather, © 2016

Note: Actual official high and low records may vary slightly from our data, if they occured in-between our weather recording intervals... More about our weather records


Toronto Weather History for the Previous 24 Hours

Scroll right to see more
Time TempWeatherWind HumidityBarometerVisibility
11:53 PM
Wed, Oct 26
41 °FLight rain. Overcast.13 mph61%30.36 "Hg15 mi
11:00 PM41 °FOvercast.9 mph57%30.38 "Hg15 mi
10:00 PM41 °FOvercast.12 mph53%30.39 "Hg15 mi
9:00 PM41 °FOvercast.8 mph53%30.40 "Hg15 mi
8:00 PM39 °FOvercast.8 mph52%30.42 "Hg15 mi
7:00 PM39 °FOvercast.6 mph52%30.44 "Hg15 mi
6:00 PM39 °FOvercast.9 mph52%30.42 "Hg15 mi
5:00 PM41 °FOvercast.7 mph49%30.44 "Hg15 mi
4:00 PM41 °FOvercast.5 mph45%30.44 "Hg15 mi
3:00 PM41 °FOvercast.3 mph45%30.45 "Hg15 mi
2:00 PM41 °FOvercast.5 mph45%30.47 "Hg15 mi
1:00 PM39 °FOvercast.3 mph45%30.50 "Hg15 mi
12:00 PM39 °FOvercast.3 mph45%30.52 "Hg15 mi
11:00 AM39 °FOvercast.5 mph42%30.52 "Hg15 mi
10:00 AM37 °FOvercast.8 mph52%30.52 "Hg15 mi
9:00 AM36 °FBroken clouds.5 mph56%30.53 "Hg15 mi
8:00 AM34 °FPassing clouds.5 mph60%30.52 "Hg15 mi
7:00 AM34 °FClear.6 mph65%30.51 "Hg15 mi
6:00 AM32 °FClear.7 mph75%30.50 "Hg15 mi
5:00 AM34 °FPassing clouds.7 mph65%30.49 "Hg15 mi
4:00 AM36 °FPassing clouds.6 mph60%30.47 "Hg15 mi
3:00 AM36 °FPassing clouds.7 mph60%30.45 "Hg15 mi
2:00 AM39 °FPassing clouds.8 mph56%30.46 "Hg15 mi
1:00 AM39 °FPassing clouds.8 mph52%30.46 "Hg15 mi
Weather by CustomWeather, © 2016

See weather overviewHow to use our weather pages